| time (UTC) | temp F | wind direction | speed knots | gust knots | rain 1hr in | rain 24hr in | rain mn in | humidity % | barometer mb |
| 20260831213044 | 85 | 158 | 2.6 | 5.2 | 0.00 | 0.31 | 0.27 | 68 | 1012.1 |
| 20260831211544 | 86 | 142 | 1.7 | 6.1 | 0.00 | 0.31 | 0.27 | 69 | 1012.0 |
| 20260831210045 | 87 | 105 | 0.9 | 3.5 | 0.00 | 0.31 | 0.27 | 70 | 1012.1 |
| 20260831204540 | 87 | 127 | 1.7 | 3.5 | 0.00 | 0.32 | 0.27 | 67 | 1012.2 |
| 20260831203038 | 87 | 174 | 0.9 | 3.5 | 0.00 | 0.32 | 0.27 | 66 | 1012.7 |
| 20260831201546 | 87 | 195 | 0.9 | 3.5 | 0.00 | 0.32 | 0.27 | 65 | 1012.8 |
| 20260831200036 | 87 | 357 | 0.9 | 5.2 | 0.00 | 0.32 | 0.27 | 63 | 1012.8 |
| 20260831194534 | 86 | 139 | 2.6 | 7.8 | 0.00 | 0.37 | 0.27 | 66 | 1012.7 |
| 20260831193033 | 86 | 135 | 1.7 | 5.2 | 0.00 | 0.37 | 0.27 | 64 | 1012.6 |
| 20260831191532 | 87 | 161 | 3.5 | 7.0 | 0.00 | 0.37 | 0.27 | 62 | 1012.9 |
| 20260831190032 | 86 | 141 | 3.5 | 9.6 | 0.00 | 0.37 | 0.27 | 62 | 1012.8 |
| 20260831184527 | 86 | 190 | 1.7 | 9.6 | 0.00 | 0.38 | 0.27 | 64 | 1013.0 |
| 20260831183031 | 86 | 143 | 2.6 | 10.4 | 0.00 | 0.38 | 0.27 | 63 | 1013.1 |
| 20260831181525 | 85 | 136 | 2.6 | 11.3 | 0.00 | 0.38 | 0.27 | 65 | 1013.0 |
| 20260831180024 | 84 | 121 | 2.6 | 10.4 | 0.00 | 0.38 | 0.27 | 68 | 1012.9 |
| 20260831174521 | 84 | 155 | 2.6 | 7.0 | 0.00 | 0.38 | 0.27 | 65 | 1013.3 |
| 20260831173017 | 82 | 166 | 2.6 | 8.7 | 0.00 | 0.38 | 0.27 | 67 | 1013.4 |
| 20260831171513 | 81 | 122 | 2.6 | 8.7 | 0.00 | 0.38 | 0.27 | 69 | 1013.6 |
| 20260831170012 | 80 | 131 | 2.6 | 7.8 | 0.00 | 0.38 | 0.27 | 72 | 1013.7 |
| 20260831164506 | 79 | 134 | 2.6 | 7.8 | 0.00 | 0.38 | 0.27 | 76 | 1013.8 |
| 20260831163001 | 77 | 89 | 1.7 | 10.4 | 0.00 | 0.38 | 0.27 | 78 | 1014.1 |
| 20260831161606 | 76 | 154 | 1.7 | 6.1 | 0.00 | 0.38 | 0.27 | 83 | 1014.1 |
| 20260831160100 | 74 | 122 | 1.7 | 6.1 | 0.00 | 0.38 | 0.27 | 84 | 1014.3 |
| 20260831154558 | 72 | 155 | 0.9 | 6.1 | 0.00 | 0.38 | 0.27 | 89 | 1014.4 |
| 20260831153055 | 71 | 139 | 0.9 | 4.3 | 0.00 | 0.38 | 0.27 | 90 | 1014.4 |
| 20260831151559 | 71 | 103 | 0.0 | 2.6 | 0.00 | 0.38 | 0.27 | 91 | 1014.5 |
| 20260831150057 | 70 | 113 | 0.0 | 2.6 | 0.00 | 0.38 | 0.27 | 91 | 1014.6 |
| 20260831144554 | 70 | 309 | 0.0 | 2.6 | 0.01 | 0.38 | 0.27 | 93 | 1014.7 |
| 20260831143108 | 70 | 105 | 0.0 | 1.7 | 0.01 | 0.38 | 0.27 | 93 | 1014.4 |
| 20260831141559 | 69 | 113 | 0.0 | 0.9 | 0.04 | 0.38 | 0.27 | 93 | 1014.6 |
| 20260831140053 | 69 | 123 | 0.0 | 0.9 | 0.04 | 0.38 | 0.27 | 94 | 1014.5 |
| 20260831134551 | 69 | 133 | 0.0 | 4.3 | 0.06 | 0.37 | 0.26 | 94 | 1014.6 |
| 20260831133050 | 68 | 109 | 0.0 | 0.9 | 0.21 | 0.36 | 0.25 | 94 | 1014.8 |
| 20260831131550 | 68 | 105 | 0.0 | 0.9 | 0.23 | 0.34 | 0.23 | 93 | 1014.5 |
| 20260831130053 | 68 | 83 | 0.0 | 1.7 | 0.23 | 0.34 | 0.23 | 93 | 1014.5 |
| 20260831124547 | 69 | 159 | 0.0 | 1.7 | 0.20 | 0.43 | 0.20 | 91 | 1014.6 |
| 20260831123041 | 71 | 164 | 0.0 | 2.6 | 0.04 | 0.27 | 0.04 | 87 | 1015.0 |
| 20260831121539 | 71 | 217 | 0.0 | 0.0 | 0.00 | 0.23 | 0.00 | 83 | 1014.5 |
| 20260831120035 | 72 | 174 | 0.0 | 0.0 | 0.00 | 0.23 | 0.00 | 81 | 1014.0 |
| 20260831114546 | 72 | 168 | 0.0 | 1.7 | 0.00 | 0.27 | 0.00 | 80 | 1013.6 |
| 20260831113034 | 72 | 137 | 0.0 | 1.7 | 0.00 | 0.27 | 0.00 | 80 | 1013.5 |
| 20260831111537 | 72 | 146 | 0.0 | 2.6 | 0.00 | 0.27 | 0.00 | 79 | 1013.5 |
| 20260831110032 | 72 | 336 | 0.0 | 3.5 | 0.00 | 0.27 | 0.00 | 80 | 1013.3 |
| 20260831104539 | 72 | 150 | 0.0 | 3.5 | 0.00 | 0.27 | 0.00 | 80 | 1013.3 |
| 20260831103037 | 72 | 143 | 0.9 | 3.5 | 0.00 | 0.27 | 0.00 | 80 | 1013.3 |
| 20260831101541 | 72 | 217 | 0.0 | 1.7 | 0.00 | 0.27 | 0.00 | 80 | 1013.5 |
| 20260831100030 | 72 | 163 | 0.0 | 2.6 | 0.00 | 0.27 | 0.00 | 79 | 1013.3 |
| 20260831094535 | 72 | 167 | 0.0 | 3.5 | 0.00 | 0.27 | 0.00 | 79 | 1013.1 |
| 20260831093031 | 72 | 108 | 0.0 | 2.6 | 0.00 | 0.27 | 0.00 | 80 | 1013.2 |
| 20260831091538 | 72 | 156 | 0.0 | 3.5 | 0.00 | 0.27 | 0.00 | 80 | 1013.5 |
| 20260831090028 | 72 | 148 | 0.0 | 3.5 | 0.00 | 0.27 | 0.00 | 81 | 1013.3 |
| 20260831084527 | 72 | 146 | 0.0 | 2.6 | 0.00 | 0.27 | 0.00 | 83 | 1013.4 |
| 20260831083025 | 72 | 158 | 0.0 | 1.7 | 0.00 | 0.27 | 0.00 | 83 | 1013.5 |
| 20260831081524 | 72 | 128 | 0.0 | 0.9 | 0.00 | 0.27 | 0.00 | 84 | 1013.4 |
| 20260831080027 | 72 | 124 | 0.0 | 1.7 | 0.00 | 0.27 | 0.00 | 84 | 1013.4 |
| 20260831074521 | 73 | 105 | 0.0 | 0.9 | 0.00 | 0.27 | 0.00 | 83 | 1013.5 |
| 20260831073019 | 73 | 134 | 0.0 | 1.7 | 0.00 | 0.27 | 0.00 | 81 | 1013.6 |
| 20260831071517 | 73 | 97 | 0.0 | 0.9 | 0.00 | 0.27 | 0.00 | 83 | 1013.7 |
| 20260831070015 | 73 | 136 | 0.0 | 0.9 | 0.00 | 0.27 | 0.00 | 83 | 1013.6 |
| 20260831064514 | 74 | 134 | 0.0 | 1.7 | 0.00 | 0.27 | 0.00 | 82 | 1013.7 |
| 20260831063012 | 74 | 142 | 0.0 | 3.5 | 0.00 | 0.27 | 0.00 | 82 | 1013.7 |
| 20260831061516 | 75 | 129 | 0.0 | 3.5 | 0.00 | 0.27 | 0.00 | 81 | 1013.5 |
| 20260831060010 | 75 | 137 | 0.9 | 4.3 | 0.00 | 0.27 | 0.00 | 81 | 1013.5 |
| 20260831054510 | 75 | 150 | 0.9 | 6.1 | 0.00 | 0.27 | 0.00 | 81 | 1013.4 |
| 20260831053005 | 75 | 167 | 2.6 | 8.7 | 0.00 | 0.27 | 0.00 | 81 | 1013.4 |
| 20260831051506 | 75 | 128 | 2.6 | 7.8 | 0.00 | 0.27 | 0.00 | 82 | 1013.2 |
| 20260831050100 | 74 | 131 | 2.6 | 8.7 | 0.00 | 0.27 | 0.00 | 85 | 1013.2 |
| 20260831044620 | 74 | 177 | 2.6 | 7.0 | 0.00 | 0.27 | 0.27 | 88 | 1013.3 |
| 20260831043056 | 73 | 117 | 1.7 | 4.3 | 0.00 | 0.27 | 0.27 | 92 | 1013.5 |
| 20260831041612 | 73 | 145 | 0.9 | 6.1 | 0.00 | 0.27 | 0.27 | 93 | 1013.9 |
| 20260831040055 | 73 | 171 | 0.9 | 2.6 | 0.00 | 0.27 | 0.27 | 95 | 1014.1 |
| 20260831034554 | 72 | 150 | 0.9 | 1.7 | 0.00 | 0.27 | 0.27 | 96 | 1014.2 |
| 20260831033053 | 72 | 170 | 0.0 | 0.0 | 0.01 | 0.27 | 0.27 | 96 | 1014.7 |
| 20260831031553 | 72 | 146 | 0.9 | 3.5 | 0.01 | 0.27 | 0.27 | 96 | 1014.6 |
| 20260831030054 | 72 | 142 | 0.0 | 0.0 | 0.01 | 0.27 | 0.27 | 95 | 1015.2 |
| 20260831024552 | 72 | 140 | 0.0 | 0.0 | 0.01 | 0.27 | 0.27 | 95 | 1015.1 |
| 20260831023051 | 72 | 136 | 0.0 | 0.9 | 0.01 | 0.26 | 0.26 | 95 | 1015.1 |
| 20260831021554 | 72 | 137 | 0.0 | 0.0 | 0.01 | 0.26 | 0.26 | 95 | 1015.1 |
| 20260831020049 | 72 | 139 | 0.0 | 0.0 | 0.01 | 0.26 | 0.26 | 94 | 1015.1 |
| 20260831014548 | 73 | 140 | 0.0 | 0.9 | 0.01 | 0.26 | 0.26 | 94 | 1015.0 |
| 20260831013057 | 73 | 139 | 0.9 | 2.6 | 0.00 | 0.25 | 0.25 | 94 | 1014.9 |
| 20260831011550 | 72 | 131 | 0.0 | 0.9 | 0.00 | 0.25 | 0.25 | 94 | 1014.8 |
| 20260831010046 | 72 | 158 | 0.0 | 0.9 | 0.00 | 0.25 | 0.25 | 94 | 1014.7 |
| 20260831004646 | 72 | 38 | 0.0 | 0.0 | 0.00 | 0.25 | 0.25 | 94 | 1014.4 |
| 20260831003047 | 73 | 29 | 0.0 | 0.9 | 0.00 | 0.25 | 0.25 | 93 | 1014.2 |
| 20260831001545 | 73 | 105 | 0.0 | 1.7 | 0.00 | 0.25 | 0.25 | 93 | 1014.3 |
| 20260831000045 | 73 | 129 | 0.0 | 3.5 | 0.00 | 0.25 | 0.25 | 93 | 1014.7 |
| 20260830234548 | 73 | 139 | 0.0 | 2.6 | 0.00 | 0.25 | 0.25 | 93 | 1014.9 |
| 20260830233043 | 73 | 117 | 0.0 | 2.6 | 0.00 | 0.25 | 0.25 | 93 | 1014.7 |
| 20260830231556 | 73 | 112 | 0.0 | 0.9 | 0.01 | 0.25 | 0.25 | 92 | 1014.9 |
| 20260830230048 | 73 | 130 | 0.0 | 0.9 | 0.01 | 0.25 | 0.25 | 92 | 1014.8 |
| 20260830224550 | 73 | 136 | 0.0 | 1.7 | 0.02 | 0.25 | 0.25 | 92 | 1015.0 |
| 20260830223040 | 73 | 134 | 0.0 | 1.7 | 0.01 | 0.24 | 0.24 | 91 | 1015.3 |
| 20260830221541 | 74 | 167 | 0.0 | 0.9 | 0.01 | 0.24 | 0.24 | 91 | 1015.3 |
| 20260830220039 | 74 | 129 | 0.0 | 0.9 | 0.01 | 0.24 | 0.24 | 91 | 1015.2 |
| 20260830214539 | 74 | 133 | 0.0 | 0.9 | 0.00 | 0.23 | 0.23 | 90 | 1014.9 |